Location: Bremen
(53.0793°N, 8.8017°E)
Time: 16:21:48
(UTC+01:00)

Transit 2A - Pass Details

Date: 29 November 2022
Orbit: 594 x 962 km, 66.7° (Epoch: 31 January)

Event Time Altitude Azimuth Distance (km) Brightness Sun altitude
Rises 19:54:19 0° 305° (NW) 3,238 10.1 -32.2°
Reaches altitude 10° 19:59:07 10° 266° (W) 2,417 9.4 -32.9°
Maximum altitude 20:00:00 10° 257° (WSW) 2,409 9.3 -33.0°
Drops below altitude 10° 20:00:58 10° 247° (WSW) 2,460 9.2 -33.2°
Sets 20:06:02 0° 210° (SSW) 3,489 9.6 -33.9°
